This is the latest recevied weather packets stored in our database for station/object IW7DVM-13. If no packets are shown the sender has not sent any weather packets the latest 10 day(s).
| Time | Temp. | Humidity | Pressure | Rain* | Wind** | Luminosity | Snow |
|---|---|---|---|---|---|---|---|
| 1787580003 | 33.33° C | 51% | 1009.4 hPa | 0 mm | - | - | - |
| 1787579703 | 32.78° C | 55% | 1009.2 hPa | 0 mm | - | - | - |
| 1787579403 | 32.78° C | 54% | 1009.2 hPa | 0 mm | - | - | - |
| 1787579103 | 32.22° C | 54% | 1009.3 hPa | 0 mm | - | - | - |
| 1787578803 | 32.22° C | 55% | 1009.2 hPa | 0 mm | - | - | - |
| 1787578503 | 32.22° C | 55% | 1009.2 hPa | 0 mm | - | - | - |
| 1787578203 | 32.22° C | 57% | 1009.3 hPa | 0 mm | - | - | - |
| 1787577903 | 32.22° C | 56% | 1009.5 hPa | 0 mm | - | - | - |
| 1787577603 | 31.67° C | 56% | 1009.4 hPa | 0 mm | - | - | - |
| 1787577303 | 32.22° C | 56% | 1009.5 hPa | 0 mm | - | - | - |
| 1787577003 | 32.22° C | 55% | 1009.5 hPa | 0 mm | - | - | - |
| 1787576703 | 32.78° C | 54% | 1009.5 hPa | 0 mm | - | - | - |
| 1787576403 | 32.22° C | 54% | 1009.6 hPa | 0 mm | - | - | - |
| 1787576103 | 32.78° C | 55% | 1009.6 hPa | 0 mm | - | - | - |
| 1787575803 | 32.78° C | 53% | 1009.5 hPa | 0 mm | - | - | - |
| 1787575503 | 32.78° C | 53% | 1009.7 hPa | 0 mm | - | - | - |
| 1787575203 | 32.22° C | 54% | 1009.6 hPa | 0 mm | - | - | - |
| 1787574903 | 32.78° C | 53% | 1009.6 hPa | 0 mm | - | - | - |
| 1787574603 | 32.78° C | 53% | 1009.6 hPa | 0 mm | - | - | - |
| 1787574303 | 32.22° C | 54% | 1009.7 hPa | 0 mm | - | - | - |
| 1787574003 | 32.22° C | 55% | 1009.7 hPa | 0 mm | - | - | - |
| 1787573703 | 32.22° C | 54% | 1009.8 hPa | 0 mm | - | - | - |
| 1787573403 | 32.22° C | 55% | 1010 hPa | 0 mm | - | - | - |
| 1787573103 | 31.67° C | 55% | 1010 hPa | 0 mm | - | - | - |
| 1787572803 | 31.67° C | 55% | 1009.9 hPa | 0 mm | - | - | - |
* Rain latest hour (hover to see other rain measurements)
** Current wind speed in m/s (hover to see current wind gust speed)